Wind_Speed
34 35 35 33 32 32 32 32 31 29 29 28 27 26 26 28 28 29 30 30 30 31 32 32 31 30 29 27 25 25 25 25 23 24 24 22 21 19 18 19 19 17 16 15 14 12 11 10 9 8 7 8 9 8 8 8 6 8 10 12 13 11 10 11 9 10 15 15 14 15 15 14 16 16 15 15 14 15 17 18 19 19 19 21 22
35 36 35 34 33 32 31 31 31 30 30 30 29 28 28 30 31 31 32 33 33 33 33 32 31 30 29 28 27 27 27 26 25 25 26 25 24 22 20 20 20 20 19 17 16 14 11 9 9 8 8 9 9 8 9 9 9 10 11 11 12 11 9 10 10 10 14 16 15 15 15 15 15 15 15 15 15 15 16 17 18 18 19 20 21
35 36 35 34 34 32 31 31 32 32 32 30 30 30 30 31 32 32 33 33 34 34 33 33 32 31 30 29 29 29 29 29 28 27 27 27 27 24 22 21 20 20 20 19 18 17 14 12 12 11 10 9 10 9 9 11 11 11 11 10 10 11 10 11 12 12 14 17 18 17 15 15 16 17 17 17 16 16 16 18 19 19 20 20 21
34 35 35 33 33 33 32 31 32 33 32 31 32 32 31 31 32 34 33 32 34 34 34 33 33 33 32 31 32 32 31 31 31 29 29 29 28 26 23 22 21 20 20 19 18 17 17 16 15 14 12 11 10 10 10 11 12 12 13 12 12 13 13 14 15 15 16 17 18 19 18 17 18 19 19 19 18 17 17 18 19 19 20 21 21
34 34 34 32 32 33 33 32 33 34 33 32 33 33 31 31 32 34 34 33 33 35 34 34 33 34 35 34 34 34 33 33 34 32 31 30 29 27 24 23 23 21 20 19 19 19 18 19 18 17 16 15 13 11 11 12 13 14 14 13 13 14 14 15 16 16 16 16 17 20 20 19 19 19 18 18 18 19 18 18 19 19 20 21 22
34 34 33 33 33 33 34 34 34 35 35 33 33 34 33 31 32 34 35 34 33 33 34 34 34 35 36 35 35 35 33 34 35 33 31 30 29 27 25 24 23 22 21 21 21 20 19 19 19 18 17 16 14 12 10 12 14 14 14 13 13 14 14 15 15 15 15 17 18 20 20 18 17 18 17 16 18 20 21 21 20 20 20 20 20
34 34 33 33 33 34 35 37 37 36 35 35 34 34 33 32 32 33 34 34 32 30 30 33 34 34 35 35 34 35 34 34 34 33 31 29 28 27 26 25 24 22 21 21 22 21 20 19 19 18 17 15 13 11 10 11 14 15 14 13 13 14 15 16 16 16 17 18 17 17 18 17 18 18 19 20 20 20 21 20 19 19 19 18 19
34 35 34 33 33 35 36 38 38 37 35 35 35 34 34 34 34 33 33 32 31 29 27 29 31 33 35 35 34 34 34 33 34 33 31 29 28 28 27 26 24 23 22 22 21 21 20 19 18 17 16 16 14 12 10 11 13 14 15 15 15 16 17 18 18 18 17 17 16 16 17 18 18 18 20 20 19 19 19 18 18 19 20 19 19
35 34 35 34 34 36 36 35 36 36 35 35 36 36 36 36 34 33 33 32 30 28 25 25 27 30 33 33 33 33 34 34 34 34 33 30 29 29 27 26 25 24 23 23 22 21 20 18 16 15 15 14 13 12 12 11 12 13 15 16 15 15 15 16 17 17 17 16 16 16 16 16 17 16 17 18 18 18 19 18 19 19 20 21 21
35 33 34 35 36 36 36 34 34 35 35 35 36 37 36 35 33 31 32 31 29 27 25 23 24 26 29 31 32 32 32 33 34 36 35 33 31 30 29 28 27 25 25 24 22 21 21 19 16 15 16 14 12 12 12 13 12 13 14 15 14 15 17 19 20 20 19 16 16 16 15 15 16 15 16 18 19 19 18 16 16 18 19 19 20
36 34 34 36 36 36 36 34 32 33 34 34 34 34 33 31 29 27 27 27 27 26 24 23 22 22 23 27 30 31 31 32 34 36 36 35 33 31 30 28 26 24 25 25 22 20 19 18 16 15 15 15 13 12 12 13 14 15 18 19 19 20 22 22 22 22 20 18 17 17 16 16 17 17 18 19 19 18 16 15 16 17 17 15 14
36 35 34 35 37 36 35 33 32 32 32 31 29 28 28 26 24 22 21 21 22 23 22 21 20 20 21 23 26 29 30 31 33 35 36 35 33 29 26 26 25 23 23 22 20 18 17 15 13 12 11 11 11 11 11 12 13 15 18 19 21 23 24 23 23 23 22 20 19 19 19 19 18 18 18 17 16 17 17 17 16 17 16 14 14
36 35 33 35 36 35 34 32 30 30 29 27 25 23 23 23 22 19 15 14 17 20 20 19 19 20 21 23 25 27 27 28 31 33 35 35 31 26 23 23 23 22 20 18 17 17 15 13 12 12 10 8 7 9 11 12 12 13 15 17 20 24 24 24 25 25 25 24 22 22 23 21 19 18 18 17 17 17 16 16 17 17 17 18 19
33 35 32 33 34 33 32 29 27 26 25 23 22 20 20 20 20 17 13 10 12 16 17 17 18 20 22 23 24 24 25 25 28 32 35 35 31 25 21 21 21 20 19 18 17 15 14 13 13 12 10 8 7 8 11 13 12 13 16 19 23 25 24 24 24 24 24 25 26 28 27 25 23 22 20 17 15 15 15 17 18 20 22 22 23
30 32 31 30 31 31 29 26 24 24 24 23 21 18 16 15 15 15 13 11 11 13 14 14 16 18 20 20 19 19 19 20 23 31 36 35 31 24 20 20 21 21 19 18 17 16 15 15 14 11 8 7 7 8 10 12 12 14 16 19 22 24 23 23 22 21 21 23 25 28 28 25 24 22 19 16 18 19 19 20 21 22 23 24 24
28 28 28 27 27 27 28 26 24 23 24 22 19 16 12 11 12 13 12 10 9 10 12 15 16 16 16 17 16 15 17 18 22 30 36 36 32 25 21 21 21 20 19 18 17 17 17 16 13 9 8 7 8 9 9 10 11 13 16 18 19 21 21 20 18 19 22 22 22 23 23 21 20 20 19 20 23 25 22 20 20 22 21 20 20
26 26 25 25 24 25 26 25 23 22 22 20 17 14 12 12 13 13 11 9 8 9 12 15 17 17 17 17 16 16 17 19 23 31 35 35 32 26 21 19 19 20 20 19 17 17 16 15 12 10 10 10 10 10 9 11 13 15 17 18 18 18 18 17 17 19 22 23 23 22 21 20 19 20 21 22 23 23 20 20 22 23 20 16 15
26 25 25 25 25 25 27 25 22 22 21 20 18 17 16 16 15 14 12 10 9 9 10 11 13 17 18 17 18 19 19 21 27 33 36 35 31 25 20 18 18 20 21 19 17 16 14 13 12 12 13 14 13 12 12 14 17 17 16 16 16 15 15 15 16 16 16 16 17 17 16 16 17 19 21 22 22 21 22 24 26 25 20 15 15
27 26 25 26 26 26 26 24 22 22 22 22 21 20 19 17 15 14 14 12 9 8 7 7 10 13 15 16 18 20 21 25 30 33 34 33 30 26 23 22 21 20 19 17 15 14 14 14 14 14 16 15 14 14 14 15 16 15 13 13 13 13 13 13 13 12 12 12 12 13 14 15 17 20 22 22 22 20 22 26 28 26 22 20 20
30 28 26 27 28 27 26 25 23 22 23 23 21 19 19 18 17 16 15 14 12 9 6 6 8 11 13 15 17 18 21 26 29 29 28 27 28 27 26 25 22 18 17 16 15 15 15 16 15 15 15 15 15 16 15 14 14 13 11 11 11 12 12 13 14 13 14 15 16 18 19 18 18 20 22 20 18 18 20 22 23 23 22 21 20
31 29 28 29 29 27 27 26 24 23 23 23 21 20 19 18 16 14 14 15 14 12 9 7 8 10 13 14 16 17 20 23 26 26 24 24 28 29 26 23 20 16 15 16 16 16 17 17 16 14 14 15 16 16 14 14 13 12 12 12 13 14 15 17 19 18 18 18 18 19 19 18 18 19 18 16 15 17 19 18 16 16 17 18 19
32 30 30 31 29 27 27 27 25 23 23 23 22 20 18 15 12 12 13 14 13 12 10 9 8 11 14 15 16 17 19 21 23 24 24 26 30 30 25 19 17 16 16 16 15 15 16 16 15 14 14 14 13 12 12 12 12 12 13 15 16 17 18 18 19 18 17 16 15 16 18 18 17 17 18 17 16 17 17 16 16 18 20 22 23
33 31 31 30 28 26 26 25 22 21 21 21 19 18 16 15 15 15 15 15 14 13 11 10 11 13 14 15 16 16 16 19 21 22 24 27 30 30 26 19 16 16 17 15 15 14 13 12 11 11 11 11 9 8 9 10 11 12 13 15 15 16 17 18 18 16 14 14 16 17 18 17 15 15 16 15 16 16 17 18 21 23 24 24 24
32 31 30 28 26 24 23 21 19 19 19 19 19 19 18 17 17 17 16 15 15 13 11 10 12 13 13 14 15 16 17 18 19 21 24 27 27 27 26 22 18 17 16 14 13 12 9 8 9 9 9 8 6 6 7 9 11 12 13 14 15 15 16 16 16 15 14 15 15 14 14 13 14 14 14 15 16 19 21 22 22 22 21 22 23
31 30 28 27 25 24 23 21 20 19 18 19 20 19 18 18 18 16 15 14 14 13 12 12 13 14 13 13 14 16 18 18 19 21 22 24 25 26 26 25 21 18 14 12 12 12 9 9 11 9 7 6 5 5 7 10 12 14 14 14 13 13 13 13 13 13 14 14 12 11 14 15 14 14 15 18 21 22 22 21 20 19 19 20 22
30 29 28 27 25 25 24 22 19 18 17 18 18 16 14 15 17 16 14 13 14 14 14 14 14 14 15 14 13 16 18 18 19 21 21 22 24 26 26 24 21 18 14 11 11 11 9 9 10 8 6 5 5 5 6 8 9 11 12 12 12 13 13 12 12 13 14 14 11 11 14 14 13 14 17 20 21 21 19 18 19 19 19 19 22
28 28 28 27 25 24 23 20 18 17 17 16 15 14 13 14 15 16 14 14 15 15 14 15 15 14 14 14 14 16 17 17 17 20 23 24 24 25 25 23 20 18 15 13 12 12 10 9 8 6 5 5 5 5 5 5 6 8 9 11 13 14 14 13 13 14 15 14 13 12 11 10 11 14 18 19 19 18 17 17 19 19 19 20 22
27 27 26 25 23 22 21 21 21 19 16 16 16 15 15 15 15 16 15 15 15 16 15 15 16 15 14 15 15 16 17 17 18 20 24 25 24 24 24 22 21 19 17 16 14 12 10 9 7 7 8 8 9 9 8 8 9 10 10 11 14 15 16 15 16 17 18 17 16 14 10 9 11 15 18 18 18 17 17 17 18 20 21 22 21
26 25 24 22 21 21 20 20 20 19 18 19 19 17 16 16 16 16 14 14 14 15 15 16 16 16 16 17 17 17 17 17 18 19 20 22 24 25 24 23 22 21 19 17 15 12 10 9 9 9 10 11 12 13 12 12 13 14 14 15 16 16 16 16 16 15 14 13 11 8 6 9 12 15 17 17 17 17 17 18 19 21 22 22 20
24 23 22 21 21 21 20 19 18 18 20 22 22 18 15 15 16 16 13 12 11 11 12 14 13 12 16 18 17 16 15 16 17 18 17 16 18 19 20 19 19 19 18 17 15 13 11 10 11 12 13 15 17 17 15 13 14 14 14 15 16 16 15 11 7 6 5 4 3 5 8 11 13 14 15 16 16 17 17 19 20 20 20 20 19
22 21 20 21 23 22 20 19 18 18 19 21 21 21 18 16 16 15 14 12 10 8 9 11 10 9 14 17 16 13 12 14 17 18 16 15 16 16 16 17 17 17 18 18 16 13 11 11 12 12 13 15 16 14 12 11 11 9 7 7 10 11 8 3 6 8 8 9 9 10 11 12 12 14 15 15 16 17 18 18 18 19 19 20 19
21 19 20 22 23 21 20 20 19 18 19 19 18 19 19 16 15 14 13 12 11 9 9 10 9 9 12 14 14 13 12 13 14 15 16 18 18 17 16 17 17 16 17 18 16 11 10 11 11 10 10 12 12 11 11 10 9 7 4 4 8 8 3 4 6 8 9 9 11 13 13 12 13 14 14 14 15 17 18 18 18 19 20 19 18
20 20 21 22 21 19 20 21 20 19 20 19 17 16 15 13 12 13 13 12 12 11 11 10 10 10 11 12 13 14 13 12 12 14 17 18 18 16 17 17 17 16 17 17 13 10 10 12 11 10 11 12 11 8 7 5 5 5 4 4 7 7 4 5 7 9 10 10 12 13 12 12 13 13 13 14 15 17 17 17 18 19 18 17 18
20 21 22 21 19 18 20 20 20 20 21 20 19 18 16 15 15 15 14 12 11 11 11 10 10 11 11 11 11 12 12 12 12 15 17 18 17 17 18 18 16 15 15 14 10 9 10 10 9 8 10 10 6 2 3 4 4 4 5 7 10 9 5 5 8 9 11 12 11 11 11 12 13 14 14 15 16 16 16 17 18 18 17 17 18
22 21 21 19 18 18 19 19 19 19 19 19 19 18 17 17 18 18 15 12 11 11 11 11 11 11 11 11 11 11 11 12 13 16 18 18 18 18 18 16 13 11 11 11 11 9 7 6 7 8 8 7 6 4 4 5 5 6 8 11 11 7 4 4 6 8 9 10 9 10 12 13 14 14 14 15 15 15 16 17 17 17 17 18 18
21 19 18 17 16 16 18 19 19 18 18 18 18 17 17 18 18 17 16 15 13 12 12 12 11 11 11 12 12 12 12 13 15 17 18 18 18 18 15 12 10 10 11 11 10 8 6 5 5 5 4 4 5 4 4 6 7 7 9 11 8 2 1 2 5 7 10 10 10 12 13 14 14 13 13 14 14 15 16 17 17 17 19 19 19
19 17 17 17 17 17 18 19 21 21 19 19 18 17 17 18 17 16 16 15 15 15 15 14 13 11 11 12 13 14 15 16 17 18 18 17 17 16 14 10 10 11 11 10 10 10 8 6 3 2 3 4 5 5 6 7 6 5 7 8 6 3 3 4 6 9 11 11 11 12 13 13 12 12 13 14 15 15 16 16 17 18 19 20 19
17 18 18 17 18 20 18 18 21 23 21 18 15 14 15 17 17 16 16 17 17 16 15 15 13 12 13 15 15 15 16 17 16 16 17 16 16 16 13 9 8 9 9 9 11 12 10 6 3 2 3 5 6 6 6 5 4 5 6 6 4 4 5 6 7 8 9 10 10 10 10 11 11 12 13 14 15 16 16 16 17 18 19 19 18
17 18 18 17 18 19 17 16 18 20 18 15 14 13 14 15 16 16 16 18 18 15 14 14 12 12 15 19 19 18 18 16 15 14 15 15 15 15 12 9 8 9 9 9 10 10 8 6 5 5 6 7 6 4 3 4 5 5 6 5 3 4 6 7 8 8 8 9 9 8 9 11 11 11 12 14 14 16 17 17 18 18 18 18 19
17 19 19 18 17 17 16 15 16 15 14 14 15 14 13 13 13 14 15 17 17 15 14 14 13 14 18 20 21 20 18 14 12 12 12 12 12 12 11 10 10 10 10 9 7 5 4 5 5 5 8 10 6 2 4 6 5 4 5 6 7 8 8 8 8 8 8 8 8 8 9 10 10 11 13 14 15 16 17 17 17 18 18 18 19
16 19 18 14 14 17 17 15 15 14 14 15 15 15 14 13 13 13 14 15 16 15 14 14 15 16 17 18 19 20 16 12 12 12 12 11 11 11 11 11 11 10 9 8 6 5 4 5 5 5 7 8 6 3 6 7 5 4 5 7 8 8 8 8 9 9 8 7 8 8 9 9 10 11 13 14 16 16 16 16 17 17 18 18 18
15 15 12 9 12 16 16 15 14 14 13 14 14 13 12 11 11 11 12 14 15 14 13 13 15 17 16 15 17 18 15 11 12 14 13 12 12 11 12 12 11 10 7 5 5 5 5 6 6 6 5 5 5 6 6 6 5 5 5 7 8 8 8 9 8 8 7 7 7 7 7 8 10 12 13 15 15 15 15 16 17 17 17 18 19
15 14 11 10 12 13 14 15 15 13 12 12 11 11 10 9 8 9 11 13 13 12 13 16 16 17 16 14 15 16 14 10 10 13 13 14 14 13 12 12 11 9 7 5 4 5 6 7 8 7 6 6 7 6 4 3 3 5 6 7 8 8 8 8 8 8 7 7 6 6 7 8 10 11 12 14 14 14 15 16 16 16 17 17 18
14 13 12 12 11 11 12 13 13 11 12 13 13 11 11 10 9 8 8 9 8 7 10 16 18 18 18 16 15 15 13 10 10 11 11 12 13 13 12 11 10 9 8 8 7 7 6 6 7 7 7 8 8 7 5 3 3 5 6 7 8 8 7 7 7 7 6 5 5 7 8 9 10 11 12 13 13 14 15 15 14 16 17 17 17
11 11 11 11 13 14 14 14 14 15 16 16 14 12 10 9 9 8 7 8 7 4 5 13 18 19 18 17 15 14 12 9 9 11 11 9 10 11 12 11 11 10 10 10 9 8 7 7 7 7 7 7 6 5 5 5 6 7 7 7 7 7 6 6 5 4 4 4 6 7 8 9 10 10 11 13 13 13 14 15 14 15 16 16 17
8 7 8 10 14 14 13 13 15 16 15 13 11 10 9 8 8 8 7 8 8 7 6 9 15 18 17 15 14 12 9 7 8 10 11 9 10 11 11 12 12 12 11 10 9 8 8 9 8 7 6 6 5 5 6 6 6 7 8 8 7 7 6 4 2 1 2 3 5 6 8 9 10 10 11 12 12 12 14 14 14 14 15 16 18
8 7 8 12 14 12 11 13 13 12 12 11 11 11 9 8 8 7 5 4 5 7 7 9 12 16 17 14 12 10 7 7 8 10 10 9 8 8 9 11 12 12 11 10 8 8 8 8 7 5 6 6 6 7 7 6 6 7 8 9 9 8 8 7 6 5 5 6 6 7 8 8 10 11 11 11 12 12 13 14 13 14 15 16 18
10 11 13 14 13 11 10 12 12 11 11 11 10 10 10 9 8 7 6 4 4 6 6 8 10 13 15 12 9 8 7 7 7 8 8 8 7 8 9 10 11 12 12 10 9 8 7 6 5 5 6 6 5 6 6 7 7 7 7 9 10 10 10 10 10 10 11 12 12 11 9 8 9 11 11 11 12 12 13 13 13 13 15 16 18
9 10 11 12 11 10 11 12 11 9 9 9 8 7 9 10 9 9 10 11 11 10 9 8 9 9 13 13 11 11 11 11 10 10 10 9 9 8 10 10 11 11 11 10 10 9 8 6 5 4 5 5 5 6 7 7 7 8 9 10 10 10 11 11 11 12 13 13 11 9 7 7 9 10 10 11 11 11 11 12 12 14 15 16 17
8 8 9 10 9 9 10 10 10 8 7 8 7 7 9 11 11 11 12 12 11 11 11 10 7 6 8 9 8 8 9 11 11 11 10 9 9 8 9 10 11 11 11 10 10 10 10 8 7 7 7 6 6 7 8 8 8 10 11 10 10 10 11 12 12 12 12 11 10 9 7 6 7 9 10 10 10 10 10 12 13 14 16 16 15
7 6 7 8 7 7 7 8 8 8 8 8 9 10 12 12 10 9 7 6 6 7 6 2 0 2 4 6 5 4 5 7 7 6 6 6 7 9 11 12 13 13 12 10 8 8 9 10 9 8 9 8 8 8 8 9 11 12 12 11 11 11 12 12 12 12 11 9 9 9 8 5 5 8 10 10 9 9 10 12 13 14 15 15 13
Wind_Direction
190 191 192 193 194 193 193 194 193 191 191 191 192 195 198 199 199 200 201 202 203 205 206 206 205 204 203 200 198 197 197 197 197 198 198 199 199 200 202 202 202 204 205 206 210 212 212 215 225 237 249 260 265 266 268 267 262 258 253 246 244 241 239 242 247 266 275 273 273 281 287 288 287 288 286 281 276 274 274 275 276 276 274 274 274
190 191 192 193 194 192 192 192 192 192 192 192 192 196 200 202 202 202 203 204 206 207 208 208 206 204 203 200 197 196 196 196 196 196 197 199 200 201 202 202 203 204 205 209 214 216 218 218 219 225 236 251 259 262 267 265 261 261 261 255 250 249 247 250 253 262 275 280 280 283 288 290 289 290 292 292 289 284 278 276 276 275 275 274 273
190 190 192 194 194 192 191 191 191 193 192 191 193 197 201 203 204 204 204 206 208 209 209 209 207 205 204 200 197 196 196 195 195 196 197 199 201 202 203 204 203 202 202 206 209 212 215 219 221 221 222 237 248 254 262 262 258 259 263 263 263 268 272 271 270 269 274 281 284 286 290 293 292 293 295 294 293 290 282 277 277 276 274 274 273
190 189 191 194 193 191 191 191 191 193 193 191 194 199 202 202 203 205 206 207 209 210 210 210 208 206 204 201 198 197 197 196 196 196 198 200 201 202 203 204 205 203 203 204 204 205 207 212 216 213 209 217 232 241 250 255 255 255 258 262 268 272 274 271 269 267 268 273 279 284 287 290 291 293 296 295 292 290 285 282 281 278 277 277 275
191 189 190 192 192 191 191 192 193 194 193 193 195 199 201 202 203 204 206 208 209 210 210 210 209 207 204 202 200 199 198 197 196 196 198 200 201 202 202 203 204 205 208 208 208 211 212 214 216 213 207 207 212 222 236 245 250 252 254 257 262 267 270 269 264 262 264 268 276 283 286 289 289 289 291 292 291 291 289 286 284 282 282 281 276
191 189 189 190 190 191 192 194 196 195 194 195 197 199 202 203 202 203 206 208 208 209 210 210 209 208 206 204 202 200 198 198 197 196 197 199 200 201 202 203 202 204 208 209 209 212 214 215 217 217 215 214 209 210 224 240 249 252 252 257 265 269 268 265 261 262 268 272 275 280 284 286 286 286 288 288 288 290 289 285 285 284 283 280 276
190 188 189 190 189 190 193 196 197 197 196 197 198 201 203 205 204 204 205 206 206 207 209 209 210 210 207 205 202 201 199 198 198 198 197 198 199 200 202 202 202 203 205 206 206 210 214 217 220 221 224 227 223 213 217 239 251 251 252 261 270 271 271 271 270 271 273 272 270 273 280 284 284 286 292 295 290 286 283 282 283 284 282 280 279
189 186 188 190 189 191 196 198 199 198 198 199 200 202 204 206 208 207 205 206 208 208 208 208 209 210 209 206 204 202 200 199 199 199 198 198 198 199 200 201 201 201 202 203 205 208 213 220 225 227 232 237 237 229 222 239 255 258 259 264 269 272 276 278 278 274 270 267 270 276 280 282 282 286 293 295 287 282 282 281 279 282 286 287 286
189 186 185 188 189 193 198 200 200 200 200 200 201 203 205 207 209 209 206 207 210 212 211 207 206 208 209 207 204 203 202 201 200 199 198 198 197 197 199 200 199 199 200 202 204 207 211 219 224 229 238 245 247 241 228 231 253 268 270 269 269 271 278 284 286 282 276 273 277 280 279 278 281 286 291 290 286 288 290 285 281 285 291 292 291
188 186 184 186 189 193 197 200 201 202 201 202 203 205 206 208 210 211 208 209 212 214 213 208 203 204 206 204 203 204 204 203 202 201 200 198 197 196 198 200 198 197 199 200 201 204 210 217 222 228 238 245 248 249 242 235 244 259 266 268 271 276 282 288 288 285 283 280 278 278 278 278 282 286 288 289 291 294 297 294 293 294 295 293 290
185 187 185 186 188 191 195 199 201 202 203 204 204 205 207 208 211 212 211 213 214 214 213 209 202 200 200 201 203 205 206 206 204 203 201 199 198 197 198 198 196 195 198 199 199 202 209 218 224 231 238 242 247 256 257 247 247 257 263 264 266 273 281 283 280 276 276 277 277 277 276 276 281 286 289 291 293 295 300 303 301 296 291 286 285
184 187 185 184 186 189 192 196 198 200 202 203 203 204 206 207 209 210 212 216 215 212 213 213 209 205 202 201 204 206 208 209 206 204 202 200 198 197 196 194 191 192 194 196 197 201 209 219 226 228 229 234 245 262 268 263 264 270 270 265 263 268 274 277 273 270 270 272 274 273 273 275 280 284 286 290 294 297 300 301 298 294 292 289 288
182 185 183 181 183 185 189 192 195 197 198 198 197 197 199 202 203 203 204 209 212 211 215 217 215 212 211 210 210 209 210 211 208 203 202 200 197 196 193 188 187 190 191 190 193 202 212 218 220 220 223 234 254 274 281 281 282 278 272 270 270 271 274 275 272 268 267 268 268 268 271 274 276 278 283 287 292 296 297 296 295 295 293 291 289
180 183 180 178 179 181 184 186 187 187 186 185 184 185 191 197 201 203 202 202 207 210 212 215 217 220 221 221 219 215 215 214 208 203 201 199 194 190 184 179 182 187 189 189 193 202 213 217 220 227 237 252 268 278 279 277 273 269 268 271 274 277 278 275 272 270 268 266 265 264 268 272 274 276 279 280 283 286 287 288 290 290 289 288 288
175 178 177 175 176 177 178 177 175 173 173 174 177 180 186 194 200 206 210 210 208 209 212 218 224 227 228 229 228 224 220 213 204 200 198 194 189 184 178 178 183 186 191 199 203 207 214 219 226 238 249 263 281 287 280 270 264 265 266 269 273 276 274 270 271 273 272 268 266 266 269 273 274 272 271 274 279 281 283 285 287 287 286 285 285
167 170 170 168 169 171 171 170 167 167 169 172 177 179 181 191 199 205 213 217 214 214 219 226 228 229 229 229 228 222 215 209 201 198 196 191 188 185 183 186 190 193 200 209 213 216 221 224 228 241 256 276 297 296 277 263 265 271 268 267 271 272 267 266 269 272 270 269 271 271 269 269 267 267 273 282 285 285 285 285 282 280 278 277 278
161 163 163 161 157 156 159 159 157 161 168 170 170 172 178 189 196 198 201 206 213 223 230 230 226 223 225 225 220 211 206 204 200 195 192 189 187 185 184 186 193 203 209 214 218 220 222 225 231 247 265 283 298 294 275 267 274 276 269 265 269 268 265 267 271 273 272 271 272 272 269 268 270 275 283 287 288 284 277 271 271 270 267 267 271
160 161 161 159 156 157 159 158 156 160 165 164 164 170 179 183 184 184 184 190 206 221 226 220 212 213 219 219 214 208 200 195 195 192 188 188 188 188 189 190 197 210 217 221 223 222 224 231 244 259 270 279 287 286 277 272 274 271 260 255 259 262 265 269 272 278 282 278 275 274 272 273 278 285 290 290 287 279 265 261 265 266 263 266 272
161 160 162 161 160 161 162 161 163 166 166 166 168 173 175 172 170 171 174 178 184 194 203 198 193 201 209 207 204 204 195 187 190 191 189 190 195 196 197 199 203 211 216 217 219 224 232 241 249 258 267 275 281 283 278 269 264 258 247 245 254 260 264 267 273 287 296 292 286 285 283 282 284 285 286 285 284 280 272 269 270 266 264 269 273
160 161 163 160 157 158 157 160 167 170 168 166 167 170 171 170 172 173 172 169 160 150 151 166 174 182 191 192 192 195 189 183 187 192 194 197 201 200 198 200 202 204 208 212 216 224 234 243 249 257 267 275 279 280 275 262 251 243 236 244 258 262 263 266 273 285 294 292 291 292 291 288 282 276 274 277 284 290 287 284 280 271 267 270 274
157 159 157 154 153 156 158 162 167 168 165 164 165 170 171 170 171 171 166 159 148 131 123 135 158 173 181 185 183 184 188 188 190 195 200 202 201 199 198 200 202 203 210 217 219 224 234 245 254 262 269 275 279 276 267 256 249 243 243 252 259 260 263 270 277 284 290 291 290 291 288 282 276 276 280 286 294 298 297 297 299 294 291 297 303
154 153 149 149 153 156 159 163 165 164 165 166 166 166 164 160 160 160 157 150 138 128 129 140 162 173 177 181 179 180 190 197 197 199 204 204 203 201 201 202 204 209 218 223 224 229 240 252 262 269 271 272 276 270 257 250 249 252 258 262 264 265 269 275 280 283 285 285 282 279 277 276 281 294 304 307 306 305 306 307 305 303 303 305 305
150 147 145 147 151 154 156 159 159 158 159 161 158 155 151 150 152 154 151 140 129 130 139 150 162 166 172 182 184 182 190 201 205 205 205 205 207 207 206 205 210 219 226 227 226 229 243 256 262 266 267 267 268 258 244 245 253 260 266 269 272 277 280 282 283 280 277 274 271 272 274 280 293 307 312 310 308 306 308 307 303 300 299 296 294
142 140 140 143 146 148 149 150 147 144 146 149 147 144 140 135 136 141 141 133 128 133 142 154 166 171 177 188 190 187 190 199 206 208 206 206 210 213 213 214 219 225 226 224 223 226 233 244 251 256 256 249 242 236 241 257 268 273 277 279 282 284 283 281 279 273 268 265 265 273 287 303 316 320 316 313 312 309 308 306 302 298 295 293 293
135 134 135 137 139 141 139 137 135 133 135 140 139 136 131 127 129 136 140 138 138 141 149 164 180 187 192 196 193 188 189 193 199 203 206 209 212 215 217 218 220 222 220 220 230 234 226 227 239 243 232 220 228 255 275 284 284 282 283 283 280 277 275 274 273 270 267 265 271 295 310 311 313 312 308 306 307 307 304 301 298 297 297 298 299
131 130 130 130 133 133 129 127 128 127 127 131 134 135 135 133 135 140 146 152 154 154 160 173 183 188 194 196 189 184 184 187 193 198 202 208 213 216 217 216 217 219 218 217 225 225 215 215 221 218 214 236 262 275 285 290 286 281 278 272 265 264 265 262 259 260 263 266 274 293 299 296 296 301 305 305 304 303 301 300 301 302 303 304 304
130 131 130 127 128 130 130 131 134 134 134 137 140 143 144 143 144 152 160 166 166 166 171 178 185 189 188 182 174 175 179 181 187 197 203 207 210 212 212 212 213 214 213 209 205 201 195 195 200 212 237 247 238 231 242 263 270 269 266 260 257 258 260 256 248 246 253 262 270 274 278 288 302 309 309 306 303 302 305 305 303 303 305 305 303
130 133 133 130 130 133 136 140 142 143 146 150 151 152 153 153 158 167 174 172 169 173 179 183 186 186 179 171 168 173 179 181 186 196 202 201 202 203 205 208 209 206 203 202 198 195 196 197 203 228 235 221 214 220 231 241 250 255 256 257 259 258 254 248 245 249 256 261 263 263 269 294 314 316 310 304 302 304 307 307 305 305 305 302 296
129 132 134 136 136 137 139 144 145 141 138 138 139 143 153 160 162 168 173 171 172 183 191 191 188 182 174 174 177 178 182 186 190 196 200 201 203 203 203 204 203 199 196 195 189 186 196 206 208 216 219 216 220 226 227 228 236 243 245 246 250 252 248 245 249 259 264 258 252 258 287 312 318 314 307 302 303 307 310 309 307 305 302 297 292
130 134 136 138 138 139 143 149 144 132 126 125 123 123 134 149 156 159 161 162 171 186 188 182 181 176 169 170 175 181 187 188 187 191 195 197 199 200 198 198 197 193 188 185 181 181 193 206 207 207 212 217 221 225 229 231 233 239 243 239 237 239 246 258 281 316 334 329 321 321 316 316 317 313 306 303 304 308 310 309 306 304 303 301 297
133 138 140 139 142 147 150 151 143 130 127 127 125 121 120 126 137 145 147 149 158 165 160 157 158 157 158 160 163 170 178 180 183 189 191 185 181 185 188 188 187 185 181 179 181 188 201 214 221 221 225 231 234 239 246 241 233 242 258 259 251 250 255 317 10 7 359 347 337 328 321 322 319 307 300 301 305 310 312 311 310 311 308 304 302
138 142 139 141 150 153 149 146 143 137 137 139 134 129 126 122 121 128 133 139 149 152 148 149 150 151 158 166 170 167 164 168 179 185 184 181 181 184 185 183 184 186 183 181 188 204 222 238 249 252 255 257 256 258 260 254 248 257 277 288 280 281 307 21 2 349 344 334 329 328 324 316 305 297 299 308 314 314 313 312 314 313 309 307 311
142 141 139 147 157 153 143 145 146 143 147 152 149 145 145 138 126 124 128 133 142 147 147 150 157 161 168 179 185 183 177 177 182 182 181 184 186 184 183 182 184 186 184 183 194 219 239 249 256 263 273 276 266 253 258 270 277 288 304 297 285 294 332 357 346 348 347 335 330 327 315 303 302 307 313 317 314 311 311 314 316 314 312 316 320
139 139 143 151 157 148 143 148 149 147 155 162 163 164 167 160 148 141 137 134 139 144 150 160 172 177 179 181 184 186 183 180 182 183 184 186 185 182 180 179 180 184 187 191 207 234 250 259 266 278 297 307 311 341 22 11 338 318 313 291 279 282 307 344 350 347 336 324 319 314 311 312 316 315 312 310 310 311 315 319 317 316 320 324 322
129 134 144 151 152 148 149 152 151 153 159 163 166 171 170 162 158 157 155 154 152 147 150 164 174 178 181 178 175 176 178 175 178 182 184 184 183 180 178 176 178 189 201 207 218 236 259 280 286 288 306 333 356 16 14 350 322 310 305 294 286 281 294 341 349 339 328 321 312 310 315 315 310 307 308 310 313 319 320 319 318 321 324 323 318
126 134 145 149 148 149 151 151 152 153 156 161 170 175 168 161 160 162 165 166 158 146 150 166 174 175 182 183 177 175 176 175 177 180 182 183 184 181 177 177 185 195 203 208 214 226 237 244 256 271 303 347 354 348 333 313 303 304 306 304 302 303 68 6 340 322 313 309 305 305 307 304 302 307 312 314 318 321 319 319 323 325 323 318 313
131 139 148 151 150 151 152 151 153 157 163 172 179 178 168 161 159 164 169 166 153 145 154 164 165 163 170 177 177 176 176 176 177 180 180 182 185 184 182 188 198 196 193 196 202 211 220 227 244 300 338 334 316 305 299 294 295 316 329 323 321 330 320 309 311 313 310 305 297 292 288 291 302 314 317 318 320 319 319 324 327 322 318 317 317
140 148 158 158 152 151 153 152 153 159 171 180 180 173 166 161 161 168 168 154 144 145 153 158 160 161 164 167 169 171 171 170 172 177 180 183 189 189 188 199 213 204 197 206 213 216 225 238 249 260 274 276 273 272 283 306 341 7 359 346 343 336 313 289 289 302 303 292 287 285 287 299 313 319 319 319 319 320 324 326 321 316 317 321 321
151 155 160 155 145 146 151 148 147 156 169 174 169 169 170 166 165 167 157 141 138 146 153 155 160 164 164 165 166 165 165 166 168 175 182 188 194 194 195 210 224 216 216 228 226 215 217 230 229 221 232 246 255 270 304 337 350 343 336 336 336 325 309 290 285 289 283 276 283 296 306 312 317 319 319 321 321 321 320 317 314 317 321 321 321
143 141 140 141 142 145 146 144 150 162 170 168 165 170 174 170 167 167 158 146 143 151 158 162 166 169 171 174 173 169 167 169 173 178 184 189 196 201 206 219 229 227 227 235 232 210 214 246 255 248 242 238 235 271 313 302 299 307 323 328 319 307 301 293 289 287 282 283 297 309 310 311 317 322 322 320 316 312 311 312 318 323 323 321 325
130 128 129 137 148 146 142 150 165 173 171 167 167 170 173 171 171 174 168 155 150 154 160 163 168 174 179 183 182 177 173 174 179 184 186 188 196 206 211 218 230 235 227 219 214 212 232 258 269 273 256 239 232 275 299 293 297 317 320 309 299 290 286 285 282 282 283 288 295 300 303 311 321 321 316 312 309 310 314 319 322 323 324 327 329
133 134 132 135 142 144 149 162 171 170 168 167 165 164 168 173 173 168 155 146 151 160 157 152 165 180 184 183 184 183 180 181 189 190 187 185 194 208 213 213 222 233 228 204 193 204 227 248 263 277 283 270 269 279 276 275 300 313 298 288 284 279 278 280 279 281 287 291 294 300 309 319 321 315 309 308 311 317 322 322 321 325 329 330 328
138 141 143 149 153 157 164 166 164 164 167 162 152 148 152 155 154 149 143 145 159 166 150 141 158 180 182 177 181 186 187 197 210 206 198 192 194 204 211 213 217 222 218 202 195 206 223 238 247 256 266 271 276 279 269 264 295 289 273 273 278 276 275 280 284 292 299 301 306 316 322 320 315 311 309 312 317 323 323 320 323 329 330 329 328
142 144 154 167 167 157 151 148 144 141 140 137 135 136 138 137 139 142 141 144 157 164 148 144 155 171 174 172 180 190 196 213 233 232 222 208 199 199 206 210 211 208 203 202 208 215 224 235 241 246 253 256 260 264 258 249 267 273 271 273 274 271 272 275 277 287 302 315 325 328 322 315 312 311 313 316 320 322 321 321 327 331 329 330 331
144 152 163 157 138 126 124 126 126 125 126 126 127 132 138 147 156 159 158 156 157 162 150 146 150 159 167 173 182 195 208 221 231 235 235 222 206 205 209 207 203 202 201 202 206 211 220 235 245 253 259 256 251 245 238 239 250 258 263 265 261 263 274 282 280 292 311 323 324 318 310 309 311 312 313 316 318 320 322 323 326 328 329 332 331
150 173 173 144 127 123 126 127 130 133 133 132 136 146 154 166 173 175 180 180 176 177 174 158 153 156 164 173 180 192 210 222 220 226 233 224 211 212 210 201 199 204 206 201 200 208 221 231 238 251 267 269 254 233 229 239 248 248 248 251 253 257 267 272 271 289 307 315 320 314 309 311 312 308 308 314 317 320 322 321 321 327 332 332 326
142 144 137 129 126 127 131 135 142 147 148 149 158 168 174 181 184 182 178 169 167 175 189 192 177 166 163 168 175 181 193 208 213 221 229 226 218 215 205 193 194 201 203 202 207 216 222 225 228 244 262 260 242 227 225 235 248 251 248 244 240 239 242 240 232 238 258 274 286 289 295 306 308 305 309 316 318 318 320 319 323 332 334 327 322
136 128 121 125 131 136 140 148 158 164 163 165 174 182 181 176 173 171 166 162 174 187 209 230 215 182 166 168 178 181 185 199 209 218 227 230 226 218 207 201 200 199 197 204 217 218 207 201 210 232 249 250 240 231 233 240 249 253 247 234 226 229 239 245 251 266 280 285 286 285 288 298 301 300 306 312 312 313 318 322 327 332 328 321 320
113 117 119 129 144 152 156 162 166 166 167 173 181 184 177 168 169 180 185 179 174 176 194 228 231 189 164 165 173 177 183 193 201 208 217 223 221 209 199 199 202 198 196 209 222 216 200 196 208 224 241 251 249 244 247 253 254 248 240 233 232 238 248 256 268 283 290 291 288 285 284 289 293 297 304 309 308 312 321 325 326 326 322 318 320
127 136 140 148 158 159 158 163 167 167 170 173 180 194 197 190 189 198 199 190 187 193 201 212 222 206 188 191 193 187 187 195 201 206 211 216 217 208 198 198 203 203 206 218 224 208 194 198 211 220 230 245 254 254 255 255 248 241 239 241 244 251 258 268 283 295 298 295 286 275 265 269 287 296 302 306 308 315 324 324 321 318 315 315 321
153 161 160 162 168 172 174 178 182 185 183 177 187 212 223 215 206 209 207 197 214 238 241 230 253 248 233 232 234 225 212 212 215 223 232 232 220 203 194 195 203 205 208 217 224 204 188 191 202 209 215 228 242 248 249 246 242 240 243 249 253 259 268 279 292 300 303 301 290 271 250 248 280 297 301 306 312 318 320 318 316 314 313 315 324
Height
737 739 741 744 747 749 753 757 760 763 765 767 769 771 774 775 776 778 779 780 781 781 782 783 786 788 790 792 794 796 799 801 803 806 808 809 810 812 813 814 814 815 816 818 819 820 821 822 824 825 827 828 829 830 831 831 831 831 832 832 833 834 834 834 834 832 831 831 831 830 829 829 828 827 826 825 824 823 823 822 821 821 820 820 819
732 735 737 740 743 746 750 754 757 759 761 763 765 768 770 771 772 774 775 776 777 778 779 782 784 787 789 790 792 794 796 798 801 803 804 806 807 808 810 811 812 813 814 816 817 818 819 820 822 823 825 826 827 828 830 830 830 830 830 830 831 832 832 832 832 831 829 829 829 828 827 826 825 825 824 823 822 821 820 820 819 819 818 817 816
728 730 733 736 739 743 747 750 753 755 757 759 761 764 765 767 769 770 771 772 773 775 777 779 781 783 785 787 788 790 792 794 797 799 801 803 804 805 807 808 809 811 812 813 814 815 817 818 819 820 822 824 825 826 827 828 829 828 828 829 829 829 830 830 830 830 828 827 826 825 824 824 823 822 822 821 820 819 818 817 817 816 816 815 814
724 726 729 732 736 740 743 746 749 750 752 755 757 759 761 763 765 766 768 769 770 772 774 776 778 779 781 782 784 786 788 789 792 794 797 799 800 802 804 805 807 808 809 811 812 813 814 815 817 817 818 819 821 822 824 826 826 826 826 826 827 827 828 828 828 827 826 825 824 823 822 821 820 819 819 818 817 817 816 815 814 813 812 812 811
719 721 725 729 733 736 739 742 744 745 747 750 752 754 757 759 761 762 764 765 766 768 770 772 773 775 776 778 779 782 784 785 787 790 792 794 796 799 801 802 803 805 807 808 809 810 812 813 814 814 814 813 815 817 819 822 823 824 824 824 825 825 825 825 825 824 824 823 821 820 820 819 818 817 817 816 815 814 813 812 811 810 809 808 808
713 717 721 725 728 732 734 737 738 740 742 745 747 750 752 754 756 757 759 761 763 764 766 767 769 770 772 774 776 778 780 782 784 786 788 790 793 795 798 799 801 802 804 805 807 809 810 811 812 813 813 812 811 812 814 818 820 821 822 822 823 823 823 823 822 822 821 820 819 818 817 816 816 815 815 815 813 811 810 809 809 808 807 806 806
708 713 717 720 723 727 729 730 732 735 738 740 743 745 748 750 751 752 754 757 759 761 762 763 765 767 769 771 773 775 777 779 781 783 786 788 790 792 794 796 798 800 801 802 804 807 808 810 810 812 813 813 812 810 811 814 817 818 819 820 821 821 821 821 820 819 818 818 817 816 815 814 814 813 812 812 811 809 808 807 806 805 805 804 803
704 708 712 715 719 721 723 725 727 730 733 736 739 741 743 745 746 748 751 753 755 757 759 760 762 764 766 768 770 772 774 776 778 781 783 786 788 789 791 793 795 797 798 800 802 804 806 808 809 811 812 813 812 810 809 812 815 816 817 818 819 819 819 819 818 817 817 816 815 814 813 812 811 810 810 809 808 807 806 805 804 803 802 801 800
699 703 707 710 713 716 719 721 723 727 730 732 735 736 738 741 743 745 747 749 752 755 757 758 759 761 763 765 768 770 771 773 774 777 780 782 784 786 788 790 791 793 794 797 799 801 803 805 807 809 811 811 811 810 808 809 812 814 815 816 817 817 817 817 817 816 815 814 813 812 811 810 809 809 808 808 807 805 804 804 802 801 800 798 797
694 698 701 705 709 712 715 718 721 723 726 728 730 732 735 738 740 743 744 746 750 752 755 756 757 759 761 763 765 767 768 769 771 773 775 778 780 782 784 786 787 789 791 793 796 798 800 803 805 807 809 809 809 808 807 807 809 811 813 814 814 814 814 815 815 814 814 813 811 811 809 808 807 807 806 806 805 804 803 802 800 799 798 796 794
690 694 697 700 704 708 711 714 717 720 722 725 728 730 733 736 739 741 743 745 748 750 752 754 755 757 759 761 763 764 765 767 768 770 773 775 777 778 780 783 784 787 789 791 793 796 799 801 803 805 806 806 806 806 806 806 806 808 810 810 811 812 812 812 812 812 812 811 810 809 808 806 805 805 804 804 803 802 801 800 799 798 797 795 792
685 689 692 696 700 703 707 711 713 717 719 723 726 729 732 735 737 740 742 744 746 748 751 753 754 756 758 759 761 762 763 765 766 768 771 773 775 778 780 782 783 786 788 790 793 795 798 800 802 803 804 803 803 804 804 804 804 805 806 807 808 809 809 809 809 809 809 809 808 807 805 804 803 803 803 802 801 800 799 799 798 796 795 793 791
681 685 688 692 696 699 704 707 711 714 717 721 724 727 730 733 736 739 741 743 745 747 749 751 753 754 756 757 758 760 761 763 765 768 770 772 776 778 779 781 783 786 788 789 792 795 797 799 801 801 802 801 801 802 802 803 802 803 804 805 805 805 805 805 806 806 806 806 805 804 803 802 801 801 801 800 800 799 797 796 796 794 793 792 790
677 681 685 689 692 697 701 704 708 712 716 720 723 726 729 732 735 738 741 743 745 747 748 750 751 753 754 755 757 758 760 761 763 767 769 772 774 776 777 780 782 785 787 789 791 793 795 797 799 800 800 799 799 799 800 801 801 801 803 803 803 803 802 802 802 802 803 803 802 801 800 800 799 798 799 798 797 797 795 794 793 792 790 789 787
674 678 682 686 690 694 698 702 707 710 714 718 722 725 729 732 735 738 740 743 745 746 748 750 751 752 753 755 757 757 758 760 762 765 767 769 772 775 777 779 781 784 786 787 789 791 794 796 797 797 797 797 797 797 798 799 799 799 800 800 799 799 798 798 798 798 799 799 799 798 798 798 797 796 796 796 795 794 793 792 791 789 787 785 784
672 676 680 684 688 692 696 701 705 709 713 718 721 725 729 732 735 738 740 743 745 747 748 749 750 751 752 754 755 755 756 758 760 763 766 768 771 774 777 779 781 784 785 786 788 790 792 794 795 795 794 794 794 794 795 797 797 797 797 796 796 796 795 795 795 796 796 796 796 795 795 795 794 794 794 793 792 792 790 790 789 787 785 783 781
670 674 679 683 687 691 695 700 704 709 713 717 721 725 728 731 734 737 739 741 743 745 746 747 748 749 750 751 752 752 754 756 758 761 764 767 770 773 776 778 781 784 785 786 787 789 790 792 792 792 792 791 791 792 793 794 794 795 795 794 794 793 793 793 794 794 794 793 793 793 792 792 792 791 791 791 790 789 789 787 786 784 782 781 778
668 673 678 682 686 691 695 699 704 708 713 716 720 723 726 729 731 732 735 737 739 742 743 744 745 746 747 749 750 751 753 754 756 758 761 765 769 772 774 777 781 784 784 785 787 788 789 789 789 790 789 788 789 789 790 791 792 792 792 792 792 792 792 792 792 792 792 791 790 790 790 790 790 789 789 788 787 787 786 784 782 781 780 778 775
667 672 677 681 686 690 694 699 703 707 710 714 717 721 723 725 727 728 730 732 734 738 741 743 744 744 746 748 749 750 752 754 756 758 761 764 768 770 773 776 778 780 782 784 785 786 787 787 786 786 786 786 786 787 787 789 789 789 790 791 791 791 790 791 791 790 790 790 789 789 788 788 788 787 786 785 784 783 783 781 779 778 777 775 773
666 671 677 681 686 690 694 698 702 705 709 712 715 719 721 722 724 725 727 728 729 732 738 742 744 745 746 747 749 751 752 754 756 759 761 763 766 769 771 773 776 778 780 782 783 783 783 783 783 784 784 784 784 785 785 786 787 787 788 789 789 789 789 789 789 789 789 788 788 787 787 786 786 784 783 782 781 781 780 778 777 776 774 772 771
665 671 676 680 686 690 694 698 702 705 708 711 714 717 719 722 725 726 728 728 727 730 736 740 743 745 747 748 750 751 753 754 756 758 760 762 764 767 770 772 774 776 778 779 780 780 780 780 780 781 781 781 782 782 784 785 785 786 787 787 787 787 787 788 788 787 787 787 786 786 785 784 783 782 781 780 779 779 778 776 775 774 773 771 769
664 670 675 680 685 689 693 698 701 704 707 710 713 715 718 721 724 727 730 730 729 731 735 739 742 746 748 749 751 752 753 755 756 757 759 761 764 767 769 771 773 775 776 777 777 778 778 778 778 778 779 779 780 781 782 783 784 785 785 785 786 786 786 786 786 786 786 786 785 784 783 782 781 780 779 778 777 777 776 775 774 772 771 770 769
663 668 674 680 685 689 694 698 701 704 706 709 712 714 716 718 720 724 728 729 729 732 736 739 743 746 748 750 751 752 754 755 756 758 759 761 764 766 768 770 772 773 774 775 775 775 776 776 776 777 777 778 778 779 781 782 783 783 784 784 784 784 784 784 784 784 784 784 783 782 781 780 779 778 777 777 776 775 774 773 772 771 770 769 768
663 669 675 681 686 691 695 697 700 703 705 708 711 715 717 718 721 725 729 729 730 733 737 740 744 747 749 750 751 753 754 755 756 757 759 761 763 765 767 769 771 772 773 773 773 773 774 774 775 775 776 777 778 779 780 781 781 782 782 782 782 782 782 782 781 782 782 781 781 780 779 779 778 777 776 776 775 774 773 771 770 769 768 767 765
664 670 676 681 686 690 693 697 700 703 706 709 712 715 718 719 722 727 730 731 732 734 737 741 744 746 748 749 750 752 753 754 755 756 758 760 762 764 766 768 769 770 771 771 772 772 772 773 774 775 775 776 777 778 779 780 780 780 780 780 780 780 780 780 780 780 780 779 779 778 778 777 776 776 775 774 773 772 771 769 768 767 766 764 762
666 671 676 681 686 689 692 697 701 704 707 710 713 716 719 721 723 725 729 731 732 734 736 740 742 744 746 747 748 750 751 753 754 755 757 759 760 762 764 766 767 769 769 770 770 770 771 772 773 774 775 776 777 778 778 778 778 778 778 779 778 778 778 778 778 778 778 777 776 776 776 775 775 774 774 773 772 770 769 767 766 764 763 762 759
668 673 677 681 685 689 692 697 701 704 707 710 714 718 720 722 723 725 728 730 731 733 735 738 740 742 743 745 747 748 750 751 752 753 755 756 758 760 762 764 766 767 767 769 769 769 770 772 773 774 774 775 776 776 776 776 776 776 776 776 776 776 776 775 775 775 774 774 774 773 773 773 772 772 772 771 769 768 767 766 764 762 761 760 757
670 674 678 682 686 690 693 697 701 704 707 710 713 716 719 721 724 726 727 728 729 731 734 736 738 739 741 743 745 746 748 749 749 750 751 753 755 757 760 761 763 764 766 767 768 769 770 771 772 772 773 773 774 774 774 774 774 774 774 774 774 774 773 773 773 772 772 771 770 771 771 771 770 770 770 769 767 766 766 764 763 761 759 757 754
672 676 680 684 689 693 696 699 702 704 706 708 711 715 718 721 724 726 726 727 728 731 733 734 736 737 739 741 742 744 745 746 747 748 749 751 753 755 756 758 760 762 764 765 766 768 769 769 770 771 771 772 772 772 772 772 771 771 771 771 771 771 771 771 771 770 769 769 769 769 769 769 768 768 768 767 766 765 764 763 761 759 756 754 752
674 678 682 686 691 694 698 701 703 705 706 708 711 715 720 722 724 724 725 726 729 731 732 733 734 736 737 738 740 742 743 744 746 747 748 750 751 753 755 756 758 760 762 764 765 766 767 767 768 768 769 770 769 769 768 768 768 768 768 768 769 769 769 769 769 769 769 769 768 769 768 767 767 767 766 765 764 763 762 761 759 756 754 752 750
676 679 683 687 691 694 697 700 703 704 707 710 713 716 720 723 724 724 725 727 729 731 732 733 734 735 736 737 739 740 742 743 744 746 747 749 751 752 754 756 757 759 761 762 764 765 765 766 766 766 766 767 766 765 765 765 766 766 766 766 768 768 768 768 768 768 768 768 768 768 767 766 765 765 765 764 762 761 760 759 757 755 753 750 748
676 680 684 687 691 693 696 698 701 704 707 710 713 717 720 722 723 724 726 727 729 731 732 732 734 735 737 737 738 740 741 742 744 745 746 748 750 752 753 755 756 758 760 761 762 763 764 764 764 764 764 763 763 763 763 763 764 764 764 765 766 767 766 766 766 767 767 767 767 766 765 765 765 764 763 762 761 760 759 757 755 753 751 749 747
677 680 684 687 689 692 694 697 700 703 706 709 712 716 719 721 722 724 726 727 729 731 732 733 735 736 737 738 738 739 740 742 743 744 746 748 749 751 752 754 756 757 759 760 761 762 762 763 762 762 762 761 761 761 761 762 762 763 763 764 765 766 765 765 765 765 766 766 766 765 764 764 764 763 762 761 760 759 757 755 754 752 750 748 746
677 680 683 686 688 690 693 696 700 703 706 709 711 714 717 719 720 723 725 727 729 731 732 733 735 736 737 738 738 739 740 741 742 744 745 747 748 750 751 753 755 757 758 759 760 761 761 761 761 761 761 760 760 760 760 761 762 763 763 763 764 764 763 763 763 764 765 765 765 765 764 764 763 762 761 760 759 757 756 754 753 751 749 747 746
678 681 684 686 687 690 693 696 698 701 704 707 709 712 714 716 719 721 724 726 728 730 732 734 735 736 737 738 738 739 740 741 742 744 745 746 748 749 751 753 754 756 757 758 759 760 760 760 760 760 761 760 760 760 760 761 762 762 762 763 763 762 761 761 763 764 764 765 765 764 764 763 762 761 760 759 757 756 755 753 752 750 749 747 745
679 682 685 686 688 691 693 696 698 701 703 705 708 710 712 715 718 720 723 725 727 730 732 733 735 736 737 738 738 739 740 741 742 743 745 746 747 748 750 752 753 755 756 757 758 758 759 759 759 759 760 760 760 760 760 761 761 761 761 762 762 761 761 761 762 763 763 764 764 764 763 763 761 760 759 758 757 756 754 753 752 750 748 747 744
680 683 685 687 689 691 694 696 698 701 703 706 707 709 711 714 717 719 721 724 726 728 731 733 734 735 736 737 738 739 740 741 742 743 744 746 747 748 750 751 752 753 754 755 756 757 757 757 758 758 759 759 760 760 760 760 761 761 761 761 761 761 761 761 762 762 762 762 762 762 762 761 760 760 759 757 756 755 754 752 751 749 748 746 743
682 684 685 687 689 691 693 696 698 700 703 705 707 709 711 713 715 717 720 722 725 727 730 732 733 734 735 736 738 739 740 741 743 743 744 745 746 747 749 750 751 751 752 753 754 755 756 756 756 757 758 759 760 760 760 760 760 760 761 761 761 761 761 761 761 761 761 761 761 761 760 760 760 759 758 757 756 755 753 752 751 749 747 745 743
684 685 686 687 688 690 693 695 697 700 703 705 706 708 710 712 714 716 718 721 724 727 729 731 732 733 734 735 737 739 740 741 742 743 744 745 745 747 748 749 750 750 751 752 753 753 754 755 755 756 757 758 759 759 759 759 760 760 761 761 761 761 761 761 760 760 760 760 760 760 759 759 759 758 758 757 756 754 753 752 750 748 746 744 742
686 686 686 687 689 691 693 696 698 700 702 704 706 708 710 711 713 715 717 720 723 725 727 729 731 731 732 734 735 737 739 740 741 742 743 744 745 746 747 748 748 749 750 751 751 752 753 754 754 755 756 757 758 758 759 759 760 759 759 760 760 760 760 760 760 759 759 759 759 759 759 759 758 758 757 756 755 754 753 751 749 748 746 744 742
686 686 687 688 690 691 694 697 699 700 702 704 705 707 709 710 712 714 716 718 721 723 725 727 728 729 730 732 734 736 738 739 740 741 742 743 744 745 746 746 747 748 748 749 750 751 752 753 754 755 756 756 757 757 758 759 759 758 758 759 760 760 760 760 759 759 759 759 759 759 759 758 758 758 757 756 755 753 752 750 749 747 745 743 742
688 688 688 690 691 693 695 697 699 700 702 703 705 707 709 710 712 714 715 717 720 722 723 725 727 728 729 731 733 735 737 738 739 740 740 741 742 743 744 745 746 746 747 748 749 750 751 753 754 754 755 755 756 756 757 757 757 757 758 759 759 759 759 759 759 758 758 758 758 758 758 758 758 757 756 755 754 752 751 750 748 747 745 743 741
688 689 690 691 692 694 695 697 698 700 702 703 705 707 709 711 713 714 716 718 720 721 722 724 726 727 729 731 733 735 736 737 738 738 738 739 740 741 742 744 745 745 746 747 748 750 751 752 753 753 754 755 755 756 756 756 757 757 758 758 758 759 758 758 758 758 758 758 758 757 757 758 757 757 756 754 753 752 751 749 748 746 745 743 741
688 689 691 692 693 694 696 697 698 701 702 704 706 708 710 712 714 715 716 718 719 720 721 723 725 727 729 731 733 735 736 736 737 737 736 737 738 739 741 742 744 745 746 747 748 749 750 751 752 752 753 754 754 754 754 755 756 757 758 758 758 758 758 758 758 758 757 757 757 757 758 757 757 756 755 754 753 752 750 749 747 746 744 743 741
688 690 691 693 694 695 696 697 700 702 703 705 708 709 711 713 714 715 717 718 719 720 721 722 724 726 728 730 732 734 735 735 735 735 735 736 737 738 739 741 743 744 745 746 747 748 749 750 751 751 752 753 753 753 753 754 756 756 757 757 757 757 757 757 757 757 757 757 757 757 757 757 756 756 755 753 752 751 750 748 747 746 744 743 741
689 691 692 693 695 696 698 699 701 703 705 707 709 710 712 713 714 715 717 717 718 720 721 722 723 725 726 728 731 732 733 734 734 734 734 735 736 737 738 740 741 743 744 745 746 747 748 749 750 750 751 752 752 752 753 754 755 755 756 756 757 757 757 756 756 756 756 757 757 757 757 756 756 755 754 753 752 751 750 748 747 745 744 743 741
690 692 693 694 695 697 699 701 702 704 705 708 709 711 712 713 714 715 716 716 717 719 720 721 722 723 724 726 728 729 730 732 732 733 733 734 735 736 737 739 740 742 743 744 745 746 747 748 748 749 751 751 752 752 753 754 754 755 755 755 755 756 756 756 756 756 756 756 756 756 756 755 755 754 753 752 751 750 749 748 746 745 744 742 740
691 692 693 695 696 698 700 701 703 705 706 707 709 710 711 712 713 715 716 717 718 719 720 720 719 720 722 724 725 726 728 730 731 731 733 733 734 735 737 738 739 741 742 743 744 745 745 746 748 749 750 751 752 752 753 753 754 754 754 754 754 755 755 755 755 755 755 755 755 755 754 754 754 753 753 752 751 750 749 747 746 745 744 742 740
693 694 695 697 698 700 701 702 704 705 706 707 709 710 710 712 713 714 715 716 717 718 718 718 717 718 719 721 722 724 726 727 728 730 731 732 733 734 735 737 738 740 740 742 743 743 744 745 747 748 750 751 751 752 752 753 753 753 753 752 753 754 754 755 755 755 754 754 753 753 753 753 753 752 752 751 750 749 748 747 746 745 743 741 739
696 697 698 698 699 700 702 703 704 705 706 707 709 709 710 711 712 712 713 714 715 715 716 716 716 717 718 719 720 721 723 724 726 727 728 730 731 733 734 736 737 738 739 740 741 741 742 744 745 747 749 750 750 751 752 752 752 752 751 752 753 753 753 754 754 754 753 752 751 751 752 752 752 751 751 750 750 749 748 747 746 744 743 741 739
697 698 698 699 700 701 702 704 704 705 706 707 708 709 709 709 710 711 712 713 714 714 714 714 715 716 717 718 719 720 721 723 725 726 727 729 730 731 732 734 736 737 738 739 740 740 741 742 744 745 747 748 749 749 750 750 751 751 751 751 752 752 752 753 753 752 751 751 750 750 750 750 751 750 750 750 749 748 747 746 745 744 742 740 739